STV1 EDDB-EDVK

Flight info

Callsign STV1
Flight time 0h 37m
Altitude 24000
Route KISUC1B KISUC Z20 MAG Z92 LUXUX
Aircraft A339/H-SADE1E2E3GHIJ3J5M1P2RWXY/LB2D1

Departure

Time 2026-05-05 15:07
Airport Berlin Brandenburg Airport (EDDB)

Arrival

Time 2026-05-05 15:44
Airport Kassel Airport (EDVK)
Time Latitude Longitude Altitude Speed Heading
2026-05-05 14:14 52.36311 13.50653 149 ft 0 kts 68°
2026-05-05 14:49 52.36308 13.50643 149 ft 2 kts 68°
2026-05-05 14:49 52.36303 13.50620 149 ft 2 kts 68°
2026-05-05 14:49 52.36298 13.50597 149 ft 2 kts 68°
2026-05-05 14:49 52.36292 13.50575 149 ft 2 kts 68°
2026-05-05 14:50 52.36287 13.50552 149 ft 2 kts 68°
2026-05-05 14:50 52.36281 13.50529 149 ft 2 kts 68°
2026-05-05 14:50 52.36276 13.50507 149 ft 2 kts 68°
2026-05-05 14:50 52.36270 13.50484 149 ft 2 kts 68°
2026-05-05 14:51 52.36265 13.50460 149 ft 2 kts 68°
2026-05-05 14:51 52.36259 13.50438 149 ft 2 kts 68°
2026-05-05 14:51 52.36256 13.50414 149 ft 2 kts 89°
2026-05-05 14:51 52.36258 13.50390 149 ft 2 kts 109°
2026-05-05 14:52 52.36264 13.50369 149 ft 2 kts 127°
2026-05-05 14:52 52.36275 13.50352 149 ft 2 kts 146°
2026-05-05 14:52 52.36283 13.50344 149 ft 0 kts 158°
2026-05-05 14:52 52.36286 13.50342 149 ft 0 kts 159°
2026-05-05 14:55 52.36282 13.50344 149 ft 2 kts 159°
2026-05-05 14:55 52.36251 13.50365 149 ft 7 kts 157°
2026-05-05 14:56 52.36193 13.50403 149 ft 10 kts 158°
2026-05-05 14:56 52.36119 13.50450 149 ft 12 kts 158°
2026-05-05 14:56 52.36037 13.50504 149 ft 13 kts 158°
2026-05-05 14:56 52.35947 13.50559 149 ft 14 kts 159°
2026-05-05 14:57 52.35878 13.50604 149 ft 8 kts 158°
2026-05-05 14:57 52.35831 13.50634 149 ft 7 kts 159°
2026-05-05 14:57 52.35775 13.50667 149 ft 9 kts 159°
2026-05-05 14:57 52.35714 13.50695 149 ft 6 kts 188°
2026-05-05 14:58 52.35674 13.50606 150 ft 15 kts 251°
2026-05-05 14:58 52.35636 13.50449 152 ft 14 kts 248°
2026-05-05 14:58 52.35631 13.50429 152 ft 15 kts 248°
2026-05-05 14:58 52.35596 13.50279 152 ft 15 kts 248°
2026-05-05 14:59 52.35555 13.50108 153 ft 15 kts 248°
2026-05-05 14:59 52.35517 13.49950 155 ft 15 kts 248°
2026-05-05 14:59 52.35477 13.49786 156 ft 15 kts 248°
2026-05-05 14:59 52.35440 13.49630 157 ft 15 kts 249°
2026-05-05 15:00 52.35401 13.49459 156 ft 17 kts 248°
2026-05-05 15:00 52.35372 13.49336 155 ft 17 kts 249°
2026-05-05 15:00 52.35312 13.49081 155 ft 18 kts 248°
2026-05-05 15:00 52.35265 13.48888 155 ft 18 kts 248°
2026-05-05 15:01 52.35218 13.48689 155 ft 18 kts 248°
2026-05-05 15:01 52.35170 13.48489 155 ft 19 kts 248°
2026-05-05 15:01 52.35122 13.48284 155 ft 19 kts 248°
2026-05-05 15:01 52.35072 13.48076 153 ft 20 kts 248°
2026-05-05 15:02 52.35020 13.47854 152 ft 21 kts 248°
2026-05-05 15:02 52.34965 13.47624 149 ft 22 kts 248°
2026-05-05 15:02 52.34906 13.47379 145 ft 23 kts 249°
2026-05-05 15:02 52.34847 13.47131 145 ft 23 kts 248°
2026-05-05 15:03 52.34792 13.46893 148 ft 21 kts 249°
2026-05-05 15:03 52.34740 13.46762 149 ft 9 kts 188°
2026-05-05 15:03 52.34685 13.46788 149 ft 5 kts 158°
2026-05-05 15:03 52.34670 13.46798 149 ft 0 kts 158°
2026-05-05 15:04 52.34668 13.46800 149 ft 2 kts 158°
2026-05-05 15:04 52.34634 13.46822 149 ft 8 kts 157°
2026-05-05 15:04 52.34572 13.46887 149 ft 12 kts 129°
2026-05-05 15:04 52.34566 13.46937 149 ft 3 kts 65°
2026-05-05 15:05 52.34571 13.46959 149 ft 0 kts 66°
2026-05-05 15:06 52.34572 13.46961 149 ft 0 kts 66°
2026-05-05 15:06 52.34578 13.46984 149 ft 4 kts 66°
2026-05-05 15:06 52.34669 13.47366 146 ft 73 kts 69°
2026-05-05 15:06 52.34932 13.48473 155 ft 135 kts 68°
2026-05-05 15:07 52.35328 13.50118 450 ft 163 kts 69°
2026-05-05 15:07 52.35649 13.51857 1130 ft 163 kts 92°
2026-05-05 15:07 52.35198 13.53473 1825 ft 167 kts 131°
2026-05-05 15:07 52.34293 13.54739 2410 ft 177 kts 140°
2026-05-05 15:08 52.33202 13.55724 2951 ft 191 kts 169°
2026-05-05 15:08 52.31852 13.55393 3414 ft 207 kts 210°
2026-05-05 15:08 52.30692 13.53861 3861 ft 224 kts 224°
2026-05-05 15:08 52.29505 13.52109 4333 ft 241 kts 222°
2026-05-05 15:09 52.28171 13.50260 4830 ft 260 kts 220°
2026-05-05 15:09 52.26851 13.48189 5400 ft 273 kts 238°
2026-05-05 15:09 52.26246 13.45295 6274 ft 273 kts 266°
2026-05-05 15:09 52.26254 13.42278 7223 ft 271 kts 270°
2026-05-05 15:10 52.26277 13.39197 8079 ft 274 kts 268°
2026-05-05 15:10 52.26011 13.36162 8871 ft 277 kts 256°
2026-05-05 15:10 52.25483 13.33047 9257 ft 298 kts 253°
2026-05-05 15:10 52.24876 13.29661 9259 ft 319 kts 253°
2026-05-05 15:11 52.24283 13.26280 9445 ft 300 kts 254°
2026-05-05 15:11 52.23729 13.23049 9616 ft 291 kts 254°
2026-05-05 15:11 52.23206 13.19938 10081 ft 289 kts 255°
2026-05-05 15:11 52.22664 13.16665 10500 ft 307 kts 255°
2026-05-05 15:12 52.22102 13.13249 10896 ft 326 kts 255°
2026-05-05 15:12 52.21503 13.09601 11420 ft 337 kts 255°
2026-05-05 15:12 52.20902 13.05932 12191 ft 342 kts 255°
2026-05-05 15:12 52.20285 13.02173 13080 ft 344 kts 255°
2026-05-05 15:13 52.19674 12.98449 13945 ft 346 kts 255°
2026-05-05 15:13 52.19051 12.94658 14758 ft 348 kts 255°
2026-05-05 15:13 52.18420 12.90829 15516 ft 352 kts 255°
2026-05-05 15:13 52.17793 12.87023 16241 ft 356 kts 254°
2026-05-05 15:14 52.17145 12.83097 16977 ft 360 kts 254°
2026-05-05 15:14 52.16498 12.79200 17741 ft 363 kts 254°
2026-05-05 15:14 52.15835 12.75206 18473 ft 367 kts 254°
2026-05-05 15:14 52.15170 12.71210 19239 ft 370 kts 254°
2026-05-05 15:15 52.14497 12.67170 19953 ft 374 kts 254°
2026-05-05 15:15 52.13822 12.63118 20618 ft 377 kts 254°
2026-05-05 15:15 52.13132 12.58994 21253 ft 381 kts 253°
2026-05-05 15:15 52.12435 12.54841 21933 ft 384 kts 253°
2026-05-05 15:16 52.11729 12.50648 22562 ft 387 kts 253°
2026-05-05 15:16 52.11012 12.46391 23034 ft 391 kts 253°
2026-05-05 15:16 52.10295 12.42155 23284 ft 391 kts 253°
2026-05-05 15:16 52.09578 12.37930 23524 ft 394 kts 253°
2026-05-05 15:17 52.08846 12.33643 23770 ft 395 kts 252°
2026-05-05 15:17 52.08109 12.29317 23818 ft 396 kts 252°
2026-05-05 15:17 52.07382 12.25064 23818 ft 394 kts 252°
2026-05-05 15:17 52.06647 12.20759 23813 ft 395 kts 252°
2026-05-05 15:18 52.05904 12.16429 23831 ft 393 kts 252°
2026-05-05 15:18 52.05168 12.12154 23811 ft 394 kts 252°
2026-05-05 15:18 52.04437 12.07909 23805 ft 395 kts 252°
2026-05-05 15:18 52.03695 12.03617 23846 ft 394 kts 252°
2026-05-05 15:19 52.02953 11.99338 23826 ft 393 kts 252°
2026-05-05 15:19 52.02220 11.95106 23818 ft 394 kts 252°
2026-05-05 15:19 52.01474 11.90816 23823 ft 395 kts 252°
2026-05-05 15:19 52.00721 11.86498 23821 ft 395 kts 252°
2026-05-05 15:20 51.99976 11.82246 23824 ft 396 kts 252°
2026-05-05 15:20 51.99223 11.77937 23817 ft 394 kts 252°
2026-05-05 15:20 51.98499 11.73686 23818 ft 395 kts 252°
2026-05-05 15:20 51.97765 11.69363 23818 ft 396 kts 253°
2026-05-05 15:21 51.97044 11.65116 23688 ft 396 kts 253°
2026-05-05 15:21 51.96310 11.60809 23426 ft 395 kts 253°
2026-05-05 15:21 51.95580 11.56537 23165 ft 393 kts 253°
2026-05-05 15:21 51.94859 11.52328 22907 ft 392 kts 253°
2026-05-05 15:22 51.94126 11.48058 22649 ft 392 kts 253°
2026-05-05 15:22 51.93400 11.43848 22421 ft 391 kts 253°
2026-05-05 15:22 51.92670 11.39626 22124 ft 388 kts 253°
2026-05-05 15:22 51.91950 11.35456 21773 ft 386 kts 253°
2026-05-05 15:23 51.91227 11.31293 21397 ft 383 kts 252°
2026-05-05 15:23 51.90502 11.27143 21011 ft 381 kts 252°
2026-05-05 15:23 51.89794 11.23083 20605 ft 378 kts 252°
2026-05-05 15:23 51.89078 11.18978 20218 ft 375 kts 253°
2026-05-05 15:24 51.88367 11.14909 19838 ft 371 kts 253°
2026-05-05 15:24 51.87672 11.10936 19544 ft 368 kts 252°
2026-05-05 15:24 51.86975 11.06976 19267 ft 366 kts 253°
2026-05-05 15:24 51.86272 11.02985 18974 ft 371 kts 253°
2026-05-05 15:25 51.85567 10.99005 18685 ft 372 kts 253°
2026-05-05 15:25 51.84852 10.94973 18393 ft 371 kts 253°
2026-05-05 15:25 51.84150 10.91018 18117 ft 369 kts 253°
2026-05-05 15:25 51.83439 10.87023 17852 ft 368 kts 253°
2026-05-05 15:26 51.82739 10.83093 17579 ft 368 kts 252°
2026-05-05 15:26 51.82027 10.79101 17291 ft 367 kts 253°
2026-05-05 15:26 51.81328 10.75198 17006 ft 365 kts 253°
2026-05-05 15:26 51.80623 10.71280 16739 ft 364 kts 253°
2026-05-05 15:27 51.79916 10.67352 16486 ft 363 kts 253°
2026-05-05 15:27 51.79213 10.63458 16203 ft 362 kts 253°
2026-05-05 15:27 51.78510 10.59559 15856 ft 361 kts 253°
2026-05-05 15:27 51.77805 10.55670 15489 ft 359 kts 253°
2026-05-05 15:28 51.77109 10.51830 15107 ft 356 kts 253°
2026-05-05 15:28 51.76422 10.48042 14735 ft 354 kts 253°
2026-05-05 15:28 51.75724 10.44212 14355 ft 352 kts 253°
2026-05-05 15:28 51.75035 10.40441 13966 ft 350 kts 253°
2026-05-05 15:29 51.74359 10.36737 13589 ft 347 kts 253°
2026-05-05 15:29 51.73672 10.32993 13195 ft 345 kts 252°
2026-05-05 15:29 51.72993 10.29304 12808 ft 343 kts 252°
2026-05-05 15:29 51.72313 10.25603 12442 ft 341 kts 252°
2026-05-05 15:30 51.71640 10.21961 12080 ft 339 kts 252°
2026-05-05 15:30 51.70966 10.18307 11694 ft 338 kts 252°
2026-05-05 15:30 51.70303 10.14718 11336 ft 336 kts 252°
2026-05-05 15:30 51.69634 10.11111 10972 ft 335 kts 252°
2026-05-05 15:31 51.68975 10.07568 10597 ft 333 kts 252°
2026-05-05 15:31 51.68305 10.03964 10221 ft 331 kts 252°
2026-05-05 15:31 51.67653 10.00467 10026 ft 324 kts 252°
2026-05-05 15:31 51.67012 9.97041 9965 ft 312 kts 252°
2026-05-05 15:32 51.66405 9.93793 9919 ft 300 kts 253°
2026-05-05 15:32 51.65810 9.90612 9856 ft 290 kts 253°
2026-05-05 15:32 51.65244 9.87590 9795 ft 279 kts 253°
2026-05-05 15:32 51.64684 9.84610 9592 ft 276 kts 253°
2026-05-05 15:33 51.64133 9.81685 9288 ft 276 kts 252°
2026-05-05 15:33 51.63573 9.78720 8988 ft 275 kts 253°
2026-05-05 15:33 51.63023 9.75814 8759 ft 274 kts 253°
2026-05-05 15:33 51.62470 9.72885 8490 ft 273 kts 253°
2026-05-05 15:34 51.61917 9.69975 8207 ft 272 kts 253°
2026-05-05 15:34 51.61374 9.67115 7947 ft 270 kts 253°
2026-05-05 15:34 51.60824 9.64227 7715 ft 268 kts 253°
2026-05-05 15:34 51.60284 9.61393 7423 ft 267 kts 253°
2026-05-05 15:35 51.59740 9.58539 7197 ft 265 kts 253°
2026-05-05 15:35 51.59206 9.55743 6950 ft 264 kts 253°
2026-05-05 15:35 51.58664 9.52913 6671 ft 263 kts 253°
2026-05-05 15:35 51.58133 9.50139 6437 ft 261 kts 253°
2026-05-05 15:36 51.57595 9.47337 6191 ft 261 kts 253°
2026-05-05 15:36 51.57065 9.44584 5947 ft 260 kts 253°
2026-05-05 15:36 51.56527 9.41793 5689 ft 260 kts 253°
2026-05-05 15:36 51.55996 9.39048 5440 ft 260 kts 254°
2026-05-05 15:37 51.55457 9.36260 5185 ft 260 kts 254°
2026-05-05 15:37 51.54911 9.33434 5014 ft 263 kts 253°
2026-05-05 15:37 51.54372 9.30652 4998 ft 252 kts 253°
2026-05-05 15:37 51.53862 9.28025 4921 ft 246 kts 253°
2026-05-05 15:38 51.53352 9.25389 4676 ft 247 kts 253°
2026-05-05 15:38 51.52846 9.22776 4435 ft 247 kts 253°
2026-05-05 15:38 51.52331 9.20128 4192 ft 248 kts 253°
2026-05-05 15:38 51.51815 9.17502 4012 ft 245 kts 253°
2026-05-05 15:39 51.51308 9.14932 3999 ft 236 kts 254°
2026-05-05 15:39 51.50686 9.12523 3973 ft 228 kts 232°
2026-05-05 15:39 51.49380 9.11115 3721 ft 229 kts 191°
2026-05-05 15:39 51.47820 9.11290 3468 ft 223 kts 162°
2026-05-05 15:40 51.46345 9.12076 3353 ft 217 kts 159°
2026-05-05 15:40 51.44895 9.12837 3231 ft 212 kts 160°
2026-05-05 15:40 51.43677 9.14086 3076 ft 205 kts 124°
2026-05-05 15:40 51.43162 9.16141 3014 ft 194 kts 97°
2026-05-05 15:41 51.43101 9.18269 3012 ft 188 kts 87°
2026-05-05 15:41 51.43093 9.20303 2920 ft 180 kts 89°
2026-05-05 15:41 51.43023 9.22246 2723 ft 169 kts 92°
2026-05-05 15:41 51.42921 9.24056 2495 ft 161 kts 93°
2026-05-05 15:42 51.42817 9.25817 2283 ft 155 kts 94°
2026-05-05 15:42 51.42724 9.27488 2080 ft 149 kts 95°
2026-05-05 15:42 51.42636 9.29123 1887 ft 144 kts 94°
2026-05-05 15:42 51.42549 9.30675 1710 ft 140 kts 94°
2026-05-05 15:43 51.42460 9.32233 1533 ft 140 kts 94°
2026-05-05 15:43 51.42372 9.33766 1360 ft 139 kts 94°
2026-05-05 15:43 51.42296 9.35318 1177 ft 139 kts 94°
2026-05-05 15:43 51.42209 9.36831 991 ft 136 kts 94°
2026-05-05 15:44 51.42127 9.38334 870 ft 126 kts 94°
2026-05-05 15:44 51.42062 9.39547 812 ft 88 kts 94°
2026-05-05 15:44 51.42032 9.39988 804 ft 13 kts 111°
2026-05-05 15:44 51.41981 9.40121 804 ft 14 kts 122°
2026-05-05 15:45 51.41933 9.40239 802 ft 9 kts 131°
2026-05-05 15:45 51.41896 9.40260 802 ft 3 kts 190°
2026-05-05 15:45 51.41875 9.40228 805 ft 5 kts 245°
2026-05-05 15:45 51.41871 9.40153 807 ft 7 kts 272°
2026-05-05 15:46 51.41875 9.40061 809 ft 7 kts 274°
2026-05-05 15:46 51.41880 9.39972 811 ft 7 kts 275°
2026-05-05 15:46 51.41885 9.39888 812 ft 7 kts 275°
2026-05-05 15:46 51.41889 9.39802 813 ft 7 kts 275°
2026-05-05 15:47 51.41894 9.39718 815 ft 7 kts 275°
2026-05-05 15:47 51.41897 9.39663 816 ft 7 kts 275°
2026-05-05 15:47 51.41903 9.39544 819 ft 8 kts 274°
2026-05-05 15:47 51.41909 9.39445 822 ft 10 kts 274°
2026-05-05 15:48 51.41917 9.39293 826 ft 14 kts 274°
2026-05-05 15:48 51.41925 9.39150 831 ft 11 kts 274°
2026-05-05 15:48 51.41931 9.39037 836 ft 9 kts 275°
2026-05-05 15:48 51.41936 9.38943 840 ft 7 kts 274°
2026-05-05 15:49 51.41927 9.38876 844 ft 6 kts 226°
2026-05-05 15:49 51.41880 9.38856 845 ft 7 kts 185°
2026-05-05 15:49 51.41828 9.38850 847 ft 7 kts 185°
2026-05-05 15:49 51.41786 9.38841 848 ft 2 kts 208°
2026-05-05 15:50 51.41781 9.38818 849 ft 1 kts 259°
2026-05-05 15:50 51.41778 9.38800 850 ft 2 kts 253°
2026-05-05 15:50 51.41769 9.38785 850 ft 1 kts 196°
2026-05-05 15:50 51.41760 9.38796 850 ft 2 kts 120°
2026-05-05 15:51 51.41758 9.38800 850 ft 0 kts 120°